METEOR 2-19

Satellite information

Favourite Embed

Satellite Type and Status

PAYLOADIN ORBIT

Key statistics

Satellite METEOR 2-19 at a glance.

Uptime

12734

Days in orbit

Revolutions

≈ 13.8

Per day

Orbit

LEO

Low Earth Orbit

Inclination

82.5

Latest

Satellite identification and parameters

Extended collection of information and parameters for METEOR 2-19.

Object identification

Identified? True

Debris? False

Object name: METEOR 2-19

International designator: 1990-057A

Object number (NORAD): 20670

Object ID (CCSDS): 20670

Country: COMMONWEALTH OF INDEPENDENT STATES (CIS)

Current information (Y/N): Y

RCS size: LARGE

Orbital parameters

Period: 103.982 minutes

Inclination: 82.5466 deg

SMA: 7324.841 km

Apoapsis: 959.158 km

Periapsis: 934.255 km

RAAN: 241.2521 deg

Eccentricy: 0.0016999

Argument of periapsis: 138.3431 deg

Mean anomaly: 221.9027 deg

Mean motion: 13.84858615 rev/day

Mean motion (dot): 0.00000047 rev/day2

B* drag term: 0.000028334 1/REarth

Two-line elements (TLE)

Creation date: May 8, 2025, 3:01 a.m.

Reference frame: TEME

Reference center: EARTH

Epoch: May 7, 2025, 6:58 p.m. UTC

TLE line 0: 0 METEOR 2-19

TLE line 1: 1 20670U 90057A 25127.79078118 .00000047 00000-0 28334-4 0 9999

TLE line 2: 2 20670 82.5466 241.2521 0016999 138.3431 221.9027 13.84858615761525

Live tracking on map

Real-time ground track for satellite METEOR 2-19.

In-orbit conjunctions

A list of the most updated potential collisions computed for object METEOR 2-19.

Target Orbit TCA Probability of collision Miss distance Type
DELTA 1 DEB SSO 2025-04-13 18:00:42 0.0001123766 382.0 (m) DEBRIS
CZ-6A DEB SSO 2025-01-07 07:32:30 0.0001117326 115.0 (m) DEBRIS
SCOUT A R/B LEO 2024-10-15 18:30:39 0.0006448582 52.0 (m) ROCKET BODY
SL-16 DEB LEO 2024-08-30 14:21:59 0.0003004673 275.0 (m) DEBRIS

Associated space launch

Second generation soviet meteorological satellite

METEOR 2-19 was lifted into orbit during the mission ‘Tsiklon-3 | Meteor-2 19’, on board a Tsiklon-3 space rocket.

The launch took place on June 27, 1990, 10:30 p.m. from 32/1.

For more information about the launch, click the button.

Launch to space Tsiklon-3 | Meteor-2 19
Tsiklon-3 | Meteor-2 19

Agency: N/A

Status: Launch Successful

Launch date: June 27, 1990, 10:30 p.m. UTC

Rocket: Tsiklon-3

Launch pad: 32/1

Location: Plesetsk Cosmodrome, Russian Federation

...

Latest news about this satellite

There are no fresh news available about this satellite. Check back as we update our databases every day.


Newsletter sign-up

Weekly statistics, charts and insights to help you stay on top of the space industry.